TimePST,TemperatureF,Dew PointF,Humidity,Sea Level PressureIn,VisibilityMPH,Wind Direction,Wind SpeedMPH,Gust SpeedMPH,PrecipitationIn,Events,Conditions,WindDirDegrees,DateUTC
12:55 AM,47.3,41.7,81,30.10,10.0,SE,6.9,-,N/A,,Clear,140,2012-11-30 08:55:00
1:55 AM,45.7,39.4,79,30.11,10.0,South,4.6,-,N/A,,Clear,180,2012-11-30 09:55:00
2:55 AM,45.5,40.3,82,30.12,10.0,SE,3.5,-,N/A,,Mostly Cloudy,140,2012-11-30 10:55:00
3:55 AM,44.2,40.1,85,30.11,10.0,SSE,4.6,-,N/A,,Scattered Clouds,160,2012-11-30 11:55:00
4:55 AM,43.7,40.1,87,30.10,10.0,SSE,4.6,-,N/A,,Clear,160,2012-11-30 12:55:00
5:55 AM,42.3,39.2,89,30.13,10.0,South,2.3,-,N/A,,Clear,190,2012-11-30 13:55:00
6:55 AM,43.5,41.0,91,30.14,10.0,South,3.5,-,N/A,,Partly Cloudy,180,2012-11-30 14:55:00
7:55 AM,48.4,45.5,90,30.14,10.0,SSE,3.5,-,N/A,,Clear,150,2012-11-30 15:55:00
8:55 AM,55.0,48.6,79,30.14,10.0,West,1.2,-,N/A,,Clear,280,2012-11-30 16:55:00
9:55 AM,61.7,48.9,63,30.12,10.0,ENE,3.5,-,N/A,,Partly Cloudy,60,2012-11-30 17:55:00
10:55 AM,61.2,48.4,63,30.10,10.0,NNW,2.3,-,N/A,,Partly Cloudy,340,2012-11-30 18:55:00
11:55 AM,61.7,47.8,60,30.09,10.0,ENE,3.5,-,N/A,,Partly Cloudy,70,2012-11-30 19:55:00
12:55 PM,61.9,47.7,60,30.07,10.0,ENE,9.2,-,N/A,,Clear,70,2012-11-30 20:55:00
1:55 PM,66.4,37.4,34,30.06,10.0,WSW,16.1,20.7,N/A,,Partly Cloudy,240,2012-11-30 21:55:00
2:55 PM,65.5,37.4,35,30.07,10.0,SW,9.2,19.6,N/A,,Scattered Clouds,230,2012-11-30 22:55:00
3:55 PM,63.1,36.0,36,30.11,7.0,West,16.1,31.1,N/A,,Mostly Cloudy,270,2012-11-30 23:55:00
5:55 PM,56.8,29.3,35,30.09,10.0,WNW,6.9,-,N/A,,Partly Cloudy,290,2012-12-01 01:55:00
6:55 PM,54.3,37.8,54,30.12,10.0,WNW,4.6,-,N/A,,Clear,300,2012-12-01 02:55:00
7:55 PM,51.3,42.4,72,30.13,10.0,SW,5.8,-,N/A,,Clear,230,2012-12-01 03:55:00
8:55 PM,49.3,42.1,76,30.11,10.0,SSW,5.8,-,N/A,,Clear,200,2012-12-01 04:55:00
9:55 PM,45.5,38.7,77,30.12,10.0,SE,5.8,-,N/A,,Clear,130,2012-12-01 05:55:00
10:55 PM,46.6,40.5,79,30.12,10.0,East,4.6,-,N/A,,Clear,100,2012-12-01 06:55:00
11:55 PM,45.9,41.9,86,30.13,10.0,East,3.5,-,N/A,,Clear,80,2012-12-01 07:55:00